Regional Weather Roundup
Issued by NWS

Home | Current Version | Previous Version | Text Only | Print | Product List | Glossary On
Versions: 1 2 3 4 5 6 7 8 9 10 11 12 13 14 15 16 17 18 19 20 21 22 23 24 25 26 27 28 29 30 31 32 33 34 35 36 37 38 39 40 41 42 43 44 45 46 47 48 49 50
000
ASUS45 KSLC 081310
RWRUT

UTAH REGIONAL WEATHER ROUNDUP
NATIONAL WEATHER SERVICE SALT LAKE CITY UT
600 AM MST THU DEC 08 2016

UTZ001>011-023>025-081400-

NORTHERN UTAH

CITY           SKY/WX    TMP DP  RH WIND       PRES   REMARKS
BRIGHAM CITY     N/A     16   8  72 N5        30.31R WCI   8
HILL AFB       CLOUDY    13   3  63 E16       30.26R WCI  -3
LOGAN          MOCLDY    10   7  87 CALM      30.32R
OGDEN          MOCLDY    16   6  65 S3        30.28R
SALT LAKE CITY MOCLDY    22  11  62 CALM      30.28R
TOOELE VALLEY  CLOUDY    21  16  79 SE3       30.28F
WENDOVER       CLOUDY    19   9  63 SE3       30.27S
HEBER CITY     MOCLDY    10   5  79 CALM      30.24S
WEST JORDAN    CLOUDY    21  15  79 SE7       30.27F WCI  12

$$

UTZ011>015-024>027-081400-

CENTRAL/NORTHEAST UTAH

CITY           SKY/WX    TMP DP  RH WIND       PRES   REMARKS
PROVO AIRPORT  MOCLDY    19   8  62 CALM      30.29S
MOAB/CANYONLAN MOCLDY    21   6  52 SE6       30.31R WCI  13
DELTA          CLOUDY    19   9  63 CALM      30.24F
PRICE          MOCLDY    13  -4  46 CALM      30.25R
RICHFIELD      CLOUDY    18  12  79 S2        30.29R
ROOSEVELT      CLOUDY    12   5  73 CALM      30.35R
VERNAL         CLOUDY    13   2  61 CALM      30.33R

$$

UTZ013>016-019>022-027-081400-

SOUTHERN UTAH

CITY           SKY/WX    TMP DP  RH WIND       PRES   REMARKS
BRYCE CANYON   CLOUDY    12   6  77 CALM      30.19R
CEDAR CITY     CLOUDY    20  11  68 CALM      30.17F
MILFORD        CLOUDY    19   7  59 W6        30.22F WCI  11
ST GEORGE      MOSUNNY   30  10  43 CALM      30.29R
HANKSVILLE     CLOUDY    18   7  62 CALM      30.35R
KANAB          PTCLDY    28   7  40 N9        30.27R WCI  20
BLANDING       CLOUDY    24   2  39 NE5       30.32R WCI  18

$$

REGIONAL REPORTS     COLORADO/ARIZONA

CITY           SKY/WX    TMP DP  RH WIND       PRES   REMARKS
CRAIG, CO      CLOUDY    -6 -13  71 W3        30.30S
GRAND JUNCTION CLOUDY    18   7  62 SE7       30.33R WCI   9
RIFLE, CO      CLOUDY    10   3  73 CALM      30.34S
MONTROSE, CO   CLOUDY    14   7  73 SE3       30.33F
CORTEZ, CO     CLOUDY    10   5  80 CALM      30.27S
COLORADO CITY    N/A     32   9  37 NE12G17   30.23R WCI  23
PAGE, AZ       MOCLDY    28   8  43 S3        30.27S
GRAND CANYON   CLEAR     18  14  84 CALM      30.20R
KINGMAN, AZ    CLEAR     28   9  44 E7        30.17S WCI  21
FLAGSTAFF, AZ  CLEAR     15  12  88 CALM      30.20R

$$

REGIONAL REPORTS    NEVADA/IDAHO/WYOMING

CITY           SKY/WX    TMP DP  RH WIND       PRES   REMARKS
LAS VEGAS, NV  MOCLDY    38   6  26 SW3       30.22R
ELY, NY        CLOUDY    18  11  74 S5        30.14F WCI  11
ELKO, NV       LGT SNOW  20  13  74 NE8       30.14F WCI  10
POCATELLO, ID  CLOUDY    -2  -7  79 NE6       30.30F WCI -14
BURLEY, ID     PTCLDY     9   4  80 E13       30.26F WCI  -7
FORT BRIDGER,  PTSUNNY   -3  -7  84 NE3       30.24R
EVANSTON, WY   CLOUDY     2  -7  66 E8        30.17S WCI -12
ROCK SPRINGS,  CLOUDY    -6 -10  83 NE5       30.23S WCI -17
KEMMERER, WY     N/A     -8 -15  71 N12       30.18S WCI -27

$$



USA.gov is the U.S. government's official web portal to all federal, state and local government web resources and services.